Regional Weather Roundup
Issued by NWS

Home | Current Version | Previous Version | Graphics & Text | Print | Product List | Glossary On
Versions: 1 2 3 4 5 6 7 8 9 10 11 12 13 14 15 16 17 18 19 20 21 22 23 24 25 26 27 28 29 30 31 32 33 34 35 36 37 38 39 40 41 42 43 44 45 46 47 48 49 50
000
ASUS43 KMPX 280810
RWRMN
WEATHER ROUNDUP FOR MINNESOTA
NATIONAL WEATHER SERVICE TWIN CITIES/CHANHASSEN MN
300 AM CDT TUE JUL 28 2015


NOTE: "FAIR" INDICATES FEW OR NO CLOUDS BELOW 12,000 FEET WITH NO
SIGNIFICANT WEATHER AND/OR OBSTRUCTIONS TO VISIBILITY. N/A MEANS
CURRENT SKY AND/OR WEATHER CONDITIONS ARE NOT AVAILABLE.

MNZ060>063-068>070-280900-
   Twin Cities Metro

CITY           SKY/WX    TMP DP  RH WIND       PRES   REMARKS
TWIN CITIES    PTCLDY    75  70  84 SE9       29.86F
ST PAUL        CLEAR     74  71  91 SE13      29.86F
CRYSTAL        CLEAR     76  71  85 SE12      29.84F
BLAINE         CLEAR     75  73  94 S8        29.86S
LAKEVILLE      CLEAR     72  70  94 S5        29.87S
EDEN PRAIRIE   MOCLDY    75  71  87 S8        29.84S
SOUTH ST PAUL  CLEAR     74  70  87 SE5       29.86F
LAKE ELMO      FAIR      73  70  88 SE8       29.88F
$$
MNZ001>005-007-008-013>017-022>024-027-028-280900-
   Northwest Minnesota

CITY           SKY/WX    TMP DP  RH WIND       PRES   REMARKS
BEMIDJI        CLOUDY    73  70  88 SE10      29.78F
HALLOCK        CLEAR     73  72  94 SE14      29.66F
ROSEAU         PTCLDY    73  66  78 SE9       29.73F
WARROAD        PTCLDY    73  70  88 SE9       29.75F
THIEF RVR FALL CLOUDY    73  70  88 SE10      29.71F
CROOKSTON      PTCLDY    73  72  94 SE10      29.68F
FOSSTON        MOCLDY    73  68  83 SE12      29.73F
DETROIT LAKES  MOCLDY    73  70  88 SE13G20   29.74F
MOORHEAD       MOCLDY    75  72  88 SE12G18   29.66F
PARK RAPIDS    CLOUDY    75  70  84 SE13      29.78F
MAHNOMEN       FAIR      74  70  87 SE10      29.72F
$$
MNZ006-009>011-018-025>026-280900-
   North Central Minnesota

CITY           SKY/WX    TMP DP  RH WIND       PRES   REMARKS
BAUDETTE       PTCLDY    72  67  84 SE9       29.78F
FLAG ISLAND    PTCLDY    77  70  78 S23       29.75F
INTL FALLS     CLEAR     69  65  86 E5        29.83F
WASKISH        PTCLDY   N/A N/A N/A E7        29.77F
BIG FORK       PTCLDY    72  66  83 SE5       29.83F
LONGVILLE      PTCLDY    72  70  94 SE5       29.80F
GRAND RAPIDS   CLEAR     70  64  83 SE9       29.84F
CRANE LAKE     CLEAR     61  61 100 S1        29.89F
ORR            CLEAR     68  61  77 CALM      29.84F
COOK           PTCLDY    70  63  78 SE3       29.87F
WALKER         CLOUDY    73  69  87 SE9       29.78F
$$
MNZ012-019>021-037-280900-
   Northeast Minnesota

CITY           SKY/WX    TMP DP  RH WIND       PRES   REMARKS
DULUTH         CLEAR     73  65  75 S10       29.90F
ELY            PTCLDY    66  61  82 SE5       29.91F
HIBBING        CLEAR     66  63  90 SE7       29.87F
EVELETH        CLEAR     68  63  83 SE3       29.90F
DULUTH HARBOR  CLEAR     73  66  78 CALM      29.88F
TWO HARBORS    PTCLDY    70  64  83 CALM      29.89F
SILVER BAY     MOCLDY    68  63  83 CALM      29.90F
GRAND MARAIS     N/A     60  56  86 CALM      29.92F
G MARAIS ARPRT CLEAR     57  54  88 CALM      29.98F
$$
MNZ029>031-032-039>041-046>048-054>057-064-280900-
   West Central Minnesota

CITY           SKY/WX    TMP DP  RH WIND       PRES   REMARKS
FERGUS FALLS   MOCLDY    75  68  78 SE20      29.69F
WHEATON          N/A     72  66  83 SE15      29.67F
MORRIS         CLOUDY    73  70  88 SE15      29.71F THUNDER
ALEXANDRIA     CLEAR     72  68  87 SE13      29.75F
ELBOW LAKE     FAIR      73  68  84 SE18G24   29.70F
WADENA         PTCLDY    72  70  94 SE10      29.76F
GLENWOOD       PTCLDY    72  66  83 SE12G17   29.76F
APPLETON       TSTM      73  66  78 S9G20     29.69F
BENSON         MOCLDY    73  64  73 S13G18    29.72F
ORTONVILLE     TSTM      72  68  88 S14G21    29.65F
MADISON        TSTM      72  70  94 SE15      29.66F
WILLMAR        FAIR      72  66  83 SE15      29.76F
$$
MNZ033>034-036-042>043-049>051-058-059-280900-
   Central Minnesota

CITY           SKY/WX    TMP DP  RH WIND       PRES   REMARKS
ST CLOUD       MOCLDY    73  71  93 SE13      29.82F
SAUK CENTRE    FAIR      71  67  88 SE9       29.77F
PAYNESVILLE    CLEAR     71  66  84 E12G20    29.79F
AITKIN         CLEAR     73  66  78 SE7       29.82F
PINE RIVER     CLOUDY    73  70  88 SE13G20   29.83F
BRAINERD       MOCLDY    73  70  90 SE12      29.81F
STAPLES        PTCLDY    72  70  94 SE9G16    29.78F
LONG PRAIRIE   FAIR      70  68  94 SE10      29.78F
LITTLE FALLS   CLEAR     72  68  88 SE10      29.80F
LITCHFIELD     PTCLDY    75  72  88 SE12G17   29.81F
BUFFALO        CLOUDY    74  70  86 SE8       29.84F
MAPLE LAKE     CLOUDY    75  73  94 SE6       29.84F
$$
MNZ037-044-045-052-053-280900-
   East Central Minnesota

CITY           SKY/WX    TMP DP  RH WIND       PRES   REMARKS
PRINCETON      PTCLDY    73  72  94 SE6       29.84F
MORA           CLEAR     70  68  94 SE3       29.87S
CAMBRIDGE      CLEAR     75  66  73 SE6       29.84S
RUSH CITY      CLEAR     72  68  89 SE7       29.86F
MOOSE LAKE     CLEAR     70  66  88 CALM      29.85F
HINCKLEY       FAIR      70  70 100 SE5       29.86F
CLOQUET        CLEAR     68  64  88 E5        29.88F
MCGREGOR       CLEAR     70  68  94 SE9       29.85F
$$
MNZ071>073-080-081-089-090-097-098-280900-
   Southwest Minnesota

CITY           SKY/WX    TMP DP  RH WIND       PRES   REMARKS
MONTEVIDEO     TSTM      72  66  83 S10G16    29.72F
GRANITE FALLS  TSTM      71  67  88 SE12G20   29.73F
CANBY          TSTM      71  68  90 S25G36    29.74R
MARSHALL       CLOUDY    73  64  73 S15       29.74F
REDWOOD FALLS  CLOUDY    72  66  81 SE14      29.76F
OLIVIA         MOCLDY    70  63  78 SE15      29.76F
PIPESTONE      MOCLDY    72  66  83 S15G21    29.74F
WINDOM         MOCLDY    72  66  83 SE14G20   29.79F
WORTHINGTON    CLOUDY    72  64  78 S17G23    29.79F
JACKSON        MOCLDY    72  68  88 SE15      29.83F
TRACY          CLOUDY    73  68  83 S14G22    29.74F
SLAYTON        MOCLDY    71  68  89 SE12G20   29.77F
$$
MNZ065>067-074>077-082>085-091>093-280900-
   South Central Minnesota

CITY           SKY/WX    TMP DP  RH WIND       PRES   REMARKS
MANKATO        CLEAR     73  68  83 SE13      29.83F
NEW ULM        PTCLDY    72  70  94 S12       29.81F
ST JAMES       PTCLDY    72  68  88 SE12      29.82F
FAIRMONT       CLOUDY    72  63  73 S14       29.84S
GLENCOE        PTCLDY    74  72  93 SE10      29.82F
OWATONNA       CLEAR     73  70  88 SE12G21   29.88F
WASECA         PTCLDY    72  70  94 SE8       29.88F
ALBERT LEA     PTCLDY    73  72  94 S14       29.88F
$$
MNZ078>079-086>088-094>096-280900-
   Southeast Minnesota

CITY           SKY/WX    TMP DP  RH WIND       PRES   REMARKS
ROCHESTER      CLEAR     70  69  97 SE9       29.92F FOG
RED WING       PTCLDY    75  70  83 SE9       29.87F
STANTON        CLEAR     74  69  84 SE9       29.85F
DODGE CENTER   PTCLDY    70  68  94 SE8       29.90F FOG
WINONA         CLEAR     73  72  94 SE7       29.92S
AUSTIN         CLEAR     73  70  88 SE7       29.90F
PRESTON        CLEAR     71  68  91 SE6       29.94S
$$
ABBREVIATIONS USED IN REMARKS
   TC - TEMPERATURES IN CELSIUS
  WCI - WIND CHILL INDEX
   HX - HEAT INDEX
  VSB - VISIBILITY
$$



USA.gov is the U.S. government's official web portal to all federal, state and local government web resources and services.